EZS52RJ LSZH-LFSB

Flight info

Callsign EZS52RJ
Flight time 0h 18m
Altitude 8000
Route VEBI1X VEBIT DCT
Aircraft A320/M-SDE3FGHIRWY/LB1

Departure

Time 2026-04-26 16:25
Airport Zürich Airport (LSZH)

Arrival

Time 2026-04-26 16:44
Airport EuroAirport Basel–Mulhouse–Freiburg (LFSB)
Time Latitude Longitude Altitude Speed Heading
2026-04-26 16:08 47.45353 8.55701 1397 ft 0 kts
2026-04-26 16:18 47.45317 8.55697 1400 ft 4 kts 358°
2026-04-26 16:19 47.45270 8.55717 1404 ft 4 kts 300°
2026-04-26 16:19 47.45265 8.55733 1402 ft 1 kts 276°
2026-04-26 16:19 47.45265 8.55735 1401 ft 0 kts 276°
2026-04-26 16:21 47.45266 8.55723 1404 ft 6 kts 275°
2026-04-26 16:21 47.45275 8.55603 1402 ft 17 kts 285°
2026-04-26 16:21 47.45376 8.55508 1399 ft 18 kts 335°
2026-04-26 16:22 47.45498 8.55423 1401 ft 20 kts 336°
2026-04-26 16:22 47.45626 8.55338 1402 ft 19 kts 339°
2026-04-26 16:22 47.45667 8.55453 1397 ft 16 kts 96°
2026-04-26 16:22 47.45654 8.55630 1397 ft 18 kts 96°
2026-04-26 16:23 47.45640 8.55827 1397 ft 20 kts 96°
2026-04-26 16:23 47.45625 8.56036 1397 ft 21 kts 96°
2026-04-26 16:23 47.45610 8.56261 1397 ft 22 kts 96°
2026-04-26 16:23 47.45593 8.56497 1397 ft 24 kts 96°
2026-04-26 16:24 47.45575 8.56743 1405 ft 24 kts 96°
2026-04-26 16:24 47.45563 8.56972 1397 ft 15 kts 72°
2026-04-26 16:24 47.45653 8.57015 1402 ft 14 kts 329°
2026-04-26 16:24 47.45672 8.56868 1399 ft 26 kts 276°
2026-04-26 16:25 47.45725 8.56167 1401 ft 106 kts 276°
2026-04-26 16:25 47.45822 8.54768 1405 ft 163 kts 276°
2026-04-26 16:25 47.45948 8.52982 1826 ft 175 kts 277°
2026-04-26 16:25 47.46076 8.51210 2664 ft 172 kts 282°
2026-04-26 16:26 47.46242 8.49429 3274 ft 183 kts 290°
2026-04-26 16:26 47.46891 8.47733 3668 ft 199 kts 307°
2026-04-26 16:26 47.47702 8.45914 4077 ft 225 kts 306°
2026-04-26 16:26 47.48596 8.43863 4587 ft 250 kts 305°
2026-04-26 16:27 47.49549 8.41634 5207 ft 269 kts 304°
2026-04-26 16:27 47.50571 8.39214 6176 ft 275 kts 304°
2026-04-26 16:27 47.51568 8.36837 7201 ft 277 kts 303°
2026-04-26 16:27 47.52590 8.34395 7835 ft 281 kts 303°
2026-04-26 16:28 47.53622 8.31934 8078 ft 281 kts 302°
2026-04-26 16:28 47.54654 8.29474 8158 ft 281 kts 302°
2026-04-26 16:28 47.55684 8.27014 8172 ft 280 kts 302°
2026-04-26 16:28 47.56711 8.24560 8175 ft 280 kts 302°
2026-04-26 16:29 47.57738 8.22104 8171 ft 280 kts 302°
2026-04-26 16:29 47.58766 8.19649 8170 ft 281 kts 302°
2026-04-26 16:29 47.59794 8.17199 8179 ft 281 kts 302°
2026-04-26 16:29 47.60825 8.14736 8171 ft 281 kts 302°
2026-04-26 16:30 47.61851 8.12277 8181 ft 281 kts 302°
2026-04-26 16:30 47.62879 8.09811 8174 ft 281 kts 302°
2026-04-26 16:30 47.63907 8.07336 8177 ft 281 kts 302°
2026-04-26 16:30 47.64933 8.04862 8173 ft 281 kts 302°
2026-04-26 16:31 47.65946 8.02428 8172 ft 281 kts 302°
2026-04-26 16:31 47.66972 7.99960 8170 ft 281 kts 302°
2026-04-26 16:31 47.67998 7.97494 8173 ft 280 kts 302°
2026-04-26 16:31 47.69021 7.95034 8168 ft 280 kts 302°
2026-04-26 16:32 47.70046 7.92568 8163 ft 280 kts 302°
2026-04-26 16:32 47.70723 7.90934 8159 ft 280 kts 302°
2026-04-26 16:32 47.72089 7.87631 8160 ft 280 kts 302°
2026-04-26 16:32 47.73112 7.85158 8157 ft 281 kts 302°
2026-04-26 16:33 47.74133 7.82688 8158 ft 281 kts 302°
2026-04-26 16:33 47.75154 7.80213 8155 ft 281 kts 302°
2026-04-26 16:33 47.76176 7.77735 8152 ft 281 kts 302°
2026-04-26 16:33 47.77198 7.75255 8149 ft 282 kts 302°
2026-04-26 16:34 47.78221 7.72769 8149 ft 282 kts 302°
2026-04-26 16:34 47.79226 7.70323 8146 ft 282 kts 302°
2026-04-26 16:34 47.80252 7.67821 8144 ft 283 kts 302°
2026-04-26 16:34 47.81277 7.65324 8015 ft 279 kts 302°
2026-04-26 16:35 47.82263 7.62912 7892 ft 267 kts 302°
2026-04-26 16:35 47.83219 7.60572 7483 ft 267 kts 301°
2026-04-26 16:35 47.84202 7.58166 6822 ft 278 kts 301°
2026-04-26 16:35 47.85225 7.55656 6283 ft 282 kts 301°
2026-04-26 16:36 47.86073 7.53108 6151 ft 269 kts 287°
2026-04-26 16:36 47.86326 7.50428 6015 ft 253 kts 266°
2026-04-26 16:36 47.85983 7.47928 5331 ft 251 kts 241°
2026-04-26 16:36 47.84921 7.45793 4471 ft 266 kts 226°
2026-04-26 16:37 47.83601 7.43799 4098 ft 272 kts 224°
2026-04-26 16:37 47.82178 7.41907 3993 ft 276 kts 214°
2026-04-26 16:37 47.80521 7.40670 3993 ft 262 kts 196°
2026-04-26 16:37 47.78802 7.40215 4003 ft 242 kts 179°
2026-04-26 16:38 47.77200 7.40435 3990 ft 223 kts 163°
2026-04-26 16:38 47.75779 7.41189 3835 ft 213 kts 152°
2026-04-26 16:38 47.74437 7.42132 3576 ft 215 kts 152°
2026-04-26 16:38 47.73076 7.43087 3308 ft 218 kts 152°
2026-04-26 16:39 47.71723 7.44034 3017 ft 210 kts 152°
2026-04-26 16:39 47.70445 7.44926 2774 ft 196 kts 153°
2026-04-26 16:39 47.69245 7.45765 2497 ft 185 kts 153°
2026-04-26 16:39 47.68113 7.46557 2257 ft 175 kts 152°
2026-04-26 16:40 47.67037 7.47307 2052 ft 165 kts 152°
2026-04-26 16:40 47.66015 7.48021 1829 ft 159 kts 152°
2026-04-26 16:40 47.65028 7.48710 1615 ft 155 kts 153°
2026-04-26 16:40 47.64073 7.49393 1541 ft 150 kts 148°
2026-04-26 16:41 47.63371 7.50518 1605 ft 150 kts 117°
2026-04-26 16:41 47.62876 7.51876 1610 ft 150 kts 111°
2026-04-26 16:41 47.62494 7.53294 1600 ft 143 kts 89°
2026-04-26 16:41 47.62560 7.54727 1612 ft 139 kts 76°
2026-04-26 16:42 47.62752 7.56144 1602 ft 142 kts 75°
2026-04-26 16:42 47.62892 7.57596 1586 ft 146 kts 95°
2026-04-26 16:42 47.62348 7.58847 1596 ft 152 kts 147°
2026-04-26 16:42 47.61318 7.59042 1603 ft 153 kts 199°
2026-04-26 16:43 47.60468 7.58105 1576 ft 154 kts 228°
2026-04-26 16:43 47.59801 7.56875 1373 ft 152 kts 236°
2026-04-26 16:43 47.59359 7.55483 1177 ft 147 kts 258°
2026-04-26 16:43 47.59151 7.53996 950 ft 148 kts 260°
2026-04-26 16:44 47.58936 7.52589 889 ft 118 kts 257°
2026-04-26 16:44 47.58829 7.51885 890 ft 37 kts 261°
2026-04-26 16:44 47.58862 7.51689 887 ft 17 kts 343°
2026-04-26 16:44 47.58975 7.51713 886 ft 18 kts 42°
2026-04-26 16:45 47.59067 7.51847 886 ft 19 kts 44°
2026-04-26 16:45 47.59162 7.51990 886 ft 20 kts 45°
2026-04-26 16:45 47.59259 7.52141 886 ft 21 kts 51°
2026-04-26 16:45 47.59323 7.52341 886 ft 22 kts 65°
2026-04-26 16:46 47.59392 7.52558 887 ft 24 kts 64°
2026-04-26 16:46 47.59464 7.52782 888 ft 24 kts 65°
2026-04-26 16:46 47.59554 7.52822 892 ft 12 kts 338°
2026-04-26 16:46 47.59623 7.52856 893 ft 12 kts 61°
2026-04-26 16:47 47.59655 7.52955 894 ft 10 kts 65°
2026-04-26 16:47 47.59684 7.53051 894 ft 11 kts 65°
2026-04-26 16:47 47.59733 7.53144 894 ft 13 kts 35°
2026-04-26 16:47 47.59754 7.53189 894 ft 1 kts 64°
2026-04-26 16:48 47.59756 7.53196 894 ft 0 kts 65°
2026-04-26 16:48 47.59757 7.53199 894 ft 0 kts 65°